N5CSU Weather Reports


time (UTC)temp
C
wind
direction
speed
KPH
gust
KPH
rain 1hr
cm
rain 24hr
cm
rain mn
cm
humidity
%
barometer
mb
20260906223457 36 199 0.0 0.0 0.00 0.00 0.00 44 1011.1
20260906222954 36 14 1.6 1.6 0.00 0.00 0.00 43 1011.1
20260906222449 36 193 0.0 0.0 0.00 0.00 0.00 43 1011.2
20260906221947 37 298 0.0 1.6 0.00 0.00 0.00 43 1011.2
20260906221440 37 193 0.0 0.0 0.00 0.00 0.00 43 1011.1
20260906220936 37 198 0.0 0.0 0.00 0.00 0.00 44 1011.1
20260906220426 36 193 0.0 1.6 0.00 0.00 0.00 43 1011.1
20260906215924 37 213 0.0 0.0 0.00 0.00 0.00 43 1011.2
20260906215420 37 188 1.6 1.6 0.00 0.00 0.00 43 1011.2
20260906214918 37 193 0.0 1.6 0.00 0.00 0.00 43 1011.0
20260906214417 37 182 1.6 1.6 0.00 0.00 0.00 44 1011.1
20260906213916 37 207 0.0 0.0 0.00 0.00 0.00 42 1011.3
20260906213411 37 197 0.0 0.0 0.00 0.00 0.00 43 1011.3
20260906212908 37 185 1.6 3.2 0.00 0.00 0.00 44 1011.4
20260906212404 37 192 0.0 0.0 0.00 0.00 0.00 43 1011.5
20260906211903 37 193 1.6 1.6 0.00 0.00 0.00 43 1011.4
20260906211353 37 186 1.6 1.6 0.00 0.00 0.00 45 1011.4
20260906210848 37 183 0.0 0.0 0.00 0.00 0.00 42 1011.7
20260906210343 37 172 1.6 1.6 0.00 0.00 0.00 43 1011.7
20260906205838 37 196 0.0 0.0 0.00 0.00 0.00 43 1011.8
20260906205335 37 190 1.6 3.2 0.00 0.00 0.00 43 1011.8
20260906204830 37 206 0.0 0.0 0.00 0.00 0.00 43 1011.9
20260906204329 37 351 4.8 4.8 0.00 0.00 0.00 43 1012.0
20260906203828 37 188 0.0 1.6 0.00 0.00 0.00 44 1012.0
20260906203323 37 193 0.0 0.0 0.00 0.00 0.00 43 1012.0
20260906202821 37 202 0.0 0.0 0.00 0.00 0.00 43 1012.4
20260906202320 37 202 0.0 0.0 0.00 0.00 0.00 43 1012.3
20260906201815 37 147 1.6 1.6 0.00 0.00 0.00 43 1012.2
20260906201314 37 228 1.6 3.2 0.00 0.00 0.00 42 1012.3
20260906200810 36 189 1.6 3.2 0.00 0.00 0.00 44 1012.4
20260906200306 37 184 0.0 1.6 0.00 0.00 0.00 43 1012.4
20260906195801 37 195 0.0 0.0 0.00 0.00 0.00 43 1012.4
20260906195258 37 200 1.6 1.6 0.00 0.00 0.00 42 1012.5
20260906194753 36 85 0.0 1.6 0.00 0.00 0.00 43 1012.6
20260906194249 36 206 0.0 0.0 0.00 0.00 0.00 43 1012.4
20260906193743 37 74 1.6 3.2 0.00 0.00 0.00 43 1012.8
20260906193237 36 178 1.6 3.2 0.00 0.00 0.00 44 1012.8
20260906192733 36 273 1.6 3.2 0.00 0.00 0.00 43 1012.7
20260906192227 37 233 0.0 1.6 0.00 0.00 0.00 43 1012.9
20260906191721 37 214 0.0 0.0 0.00 0.00 0.00 43 1012.9
20260906191216 37 208 0.0 0.0 0.00 0.00 0.00 43 1012.9
20260906190710 37 182 1.6 1.6 0.00 0.00 0.00 43 1012.9
20260906190205 36 212 0.0 0.0 0.00 0.00 0.00 45 1013.0
20260906185704 36 200 0.0 0.0 0.00 0.00 0.00 46 1013.1
20260906185203 36 184 1.6 1.6 0.00 0.00 0.00 48 1013.1
20260906184658 36 143 3.2 3.2 0.00 0.00 0.00 47 1013.2
20260906184153 36 257 0.0 0.0 0.00 0.00 0.00 47 1013.3
20260906183649 36 187 1.6 1.6 0.00 0.00 0.00 47 1013.2
20260906183145 36 201 0.0 0.0 0.00 0.00 0.00 47 1013.4
20260906182645 36 24 1.6 1.6 0.00 0.00 0.00 47 1013.5
20260906182141 36 216 0.0 1.6 0.00 0.00 0.00 47 1013.7
20260906181636 36 210 0.0 0.0 0.00 0.00 0.00 47 1013.6
20260906181132 36 144 0.0 0.0 0.00 0.00 0.00 48 1013.7
20260906180627 36 187 0.0 0.0 0.00 0.00 0.00 48 1013.7
20260906180127 35 239 0.0 0.0 0.00 0.00 0.00 49 1013.8
20260906175626 36 244 1.6 3.2 0.00 0.00 0.00 48 1013.9
20260906175121 36 196 0.0 0.0 0.00 0.00 0.00 49 1013.9
20260906174619 36 212 0.0 0.0 0.00 0.00 0.00 49 1014.1
20260906174113 35 183 1.6 1.6 0.00 0.00 0.00 51 1014.1
20260906173608 35 191 0.0 0.0 0.00 0.00 0.00 52 1014.2
20260906173104 35 220 0.0 1.6 0.00 0.00 0.00 51 1014.4
20260906172558 35 206 0.0 0.0 0.00 0.00 0.00 52 1014.5
20260906172054 35 65 1.6 1.6 0.00 0.00 0.00 51 1014.6
20260906171553 35 248 1.6 1.6 0.00 0.00 0.00 51 1014.5
20260906171049 34 12 1.6 3.2 0.00 0.00 0.00 53 1014.5
20260906170545 34 220 1.6 1.6 0.00 0.00 0.00 53 1014.7
20260906170044 35 354 3.2 3.2 0.00 0.00 0.00 54 1014.6
20260906165541 35 197 0.0 1.6 0.00 0.00 0.00 54 1014.8
20260906165041 35 205 0.0 0.0 0.00 0.00 0.00 54 1014.8
20260906164540 35 172 1.6 3.2 0.00 0.00 0.00 53 1014.9
20260906164036 35 210 0.0 0.0 0.00 0.00 0.00 54 1014.8
20260906163531 35 196 0.0 1.6 0.00 0.00 0.00 54 1014.8
20260906163027 35 203 0.0 0.0 0.00 0.00 0.00 55 1014.9
20260906162524 34 202 0.0 1.6 0.00 0.00 0.00 55 1015.0
20260906162019 34 259 1.6 1.6 0.00 0.00 0.00 57 1014.9
20260906161514 35 196 0.0 0.0 0.00 0.00 0.00 55 1014.8
20260906161013 34 192 0.0 0.0 0.00 0.00 0.00 58 1015.1
20260906160507 33 208 0.0 0.0 0.00 0.00 0.00 60 1014.9
20260906160006 33 234 0.0 0.0 0.00 0.00 0.00 58 1015.0
20260906155504 33 161 0.0 0.0 0.00 0.00 0.00 61 1015.1
20260906155000 32 189 0.0 0.0 0.00 0.00 0.00 65 1014.9
20260906154455 31 193 0.0 0.0 0.00 0.00 0.00 66 1014.7
20260906153953 31 187 0.0 0.0 0.00 0.00 0.00 67 1014.9
20260906153452 31 200 0.0 0.0 0.00 0.00 0.00 68 1014.7
20260906152948 31 192 0.0 0.0 0.00 0.00 0.00 70 1014.9
20260906152447 31 175 0.0 0.0 0.00 0.00 0.00 69 1014.8
20260906151946 30 197 0.0 0.0 0.00 0.00 0.00 71 1014.8
20260906151442 30 180 0.0 0.0 0.00 0.00 0.00 71 1014.5
20260906150938 30 191 0.0 0.0 0.00 0.00 0.00 72 1014.8
20260906150432 30 200 0.0 0.0 0.00 0.00 0.00 72 1014.8
20260906145926 30 198 0.0 0.0 0.00 0.00 0.00 73 1014.6
20260906145425 30 182 0.0 0.0 0.00 0.00 0.00 74 1014.8
20260906144921 29 184 0.0 0.0 0.00 0.00 0.00 75 1014.8
20260906144421 29 203 0.0 0.0 0.00 0.00 0.00 76 1014.6
20260906143916 28 183 0.0 0.0 0.00 0.00 0.00 76 1014.6
20260906143412 28 198 0.0 0.0 0.00 0.00 0.00 77 1014.5
20260906142908 28 179 0.0 0.0 0.00 0.00 0.00 78 1014.5
20260906142407 28 199 0.0 0.0 0.00 0.00 0.00 78 1014.6
20260906141902 28 188 0.0 0.0 0.00 0.00 0.00 79 1014.7
20260906141401 27 188 0.0 0.0 0.00 0.00 0.00 80 1014.8
20260906140855 27 194 0.0 0.0 0.00 0.00 0.00 80 1014.8
20260906140350 27 196 0.0 0.0 0.00 0.00 0.00 82 1014.7
20260906135849 27 186 0.0 0.0 0.00 0.00 0.00 82 1014.7
20260906135343 27 188 0.0 0.0 0.00 0.00 0.00 84 1014.7
20260906134838 27 178 0.0 0.0 0.00 0.00 0.00 84 1014.6
20260906134333 26 194 0.0 0.0 0.00 0.00 0.00 85 1014.6
20260906133829 26 184 0.0 0.0 0.00 0.00 0.00 86 1014.5
20260906133325 26 188 0.0 0.0 0.00 0.00 0.00 87 1014.6
20260906132820 26 198 0.0 0.0 0.00 0.00 0.00 88 1014.6
20260906132315 26 203 0.0 0.0 0.00 0.00 0.00 89 1014.5
20260906131810 25 203 0.0 0.0 0.00 0.00 0.00 89 1014.3
20260906131305 25 193 0.0 0.0 0.00 0.00 0.00 90 1014.4
20260906130801 25 189 0.0 0.0 0.00 0.00 0.00 91 1014.3
20260906130255 25 192 0.0 0.0 0.00 0.00 0.00 92 1014.5
20260906125754 25 192 0.0 0.0 0.00 0.00 0.00 92 1014.4
20260906125253 25 192 0.0 0.0 0.00 0.00 0.00 92 1014.5
20260906124752 25 192 0.0 0.0 0.00 0.00 0.00 92 1014.3
20260906124248 25 192 0.0 0.0 0.00 0.00 0.00 92 1014.0
20260906123747 25 192 0.0 0.0 0.00 0.00 0.00 92 1014.0
20260906123242 25 192 0.0 0.0 0.00 0.00 0.00 92 1014.1
20260906122742 25 192 0.0 0.0 0.00 0.00 0.00 92 1014.1
20260906122237 25 192 0.0 0.0 0.00 0.00 0.00 92 1014.1
20260906121733 25 192 0.0 0.0 0.00 0.00 0.00 92 1013.9
20260906121230 25 192 0.0 0.0 0.00 0.00 0.00 92 1014.0
20260906120725 25 192 0.0 0.0 0.00 0.00 0.00 92 1014.0
20260906120222 25 192 0.0 0.0 0.00 0.00 0.00 92 1014.0
20260906115717 25 192 0.0 0.0 0.00 0.00 0.00 92 1013.9
20260906115212 25 192 0.0 0.0 0.00 0.00 0.00 92 1013.7
20260906114712 25 192 0.0 0.0 0.00 0.00 0.00 92 1013.7
20260906114206 25 192 0.0 0.0 0.00 0.00 0.00 92 1013.9
20260906113701 25 192 0.0 0.0 0.00 0.00 0.00 92 1013.9
20260906113201 25 192 0.0 0.0 0.00 0.00 0.00 92 1013.7
20260906112700 25 192 0.0 0.0 0.00 0.00 0.00 92 1013.8
20260906112158 25 192 0.0 0.0 0.00 0.00 0.00 92 1013.8
20260906111657 25 192 0.0 0.0 0.00 0.00 0.00 92 1013.6
20260906111151 25 192 0.0 0.0 0.00 0.00 0.00 92 1013.6
20260906110646 25 192 0.0 0.0 0.00 0.00 0.00 91 1013.5
20260906110142 25 192 0.0 0.0 0.00 0.00 0.00 91 1013.4
20260906105635 25 192 0.0 0.0 0.00 0.00 0.00 91 1013.4
20260906105132 25 192 0.0 0.0 0.00 0.00 0.00 91 1013.5
20260906104631 25 192 0.0 0.0 0.00 0.00 0.00 91 1013.3
20260906104125 25 192 0.0 0.0 0.00 0.00 0.00 91 1013.5
20260906103623 25 192 0.0 0.0 0.00 0.00 0.00 90 1013.4
20260906103119 25 192 0.0 0.0 0.00 0.00 0.00 90 1013.5
20260906102614 25 192 0.0 0.0 0.00 0.00 0.00 90 1013.3
20260906102108 25 192 0.0 0.0 0.00 0.00 0.00 90 1013.5
20260906101603 25 192 0.0 0.0 0.00 0.00 0.00 90 1013.4
20260906101102 25 192 0.0 0.0 0.00 0.00 0.00 90 1013.1
20260906100558 25 192 0.0 0.0 0.00 0.00 0.00 90 1013.0
20260906100053 25 192 0.0 0.0 0.00 0.00 0.00 90 1013.1
20260906095547 25 192 0.0 0.0 0.00 0.00 0.00 89 1013.2
20260906095043 25 192 0.0 0.0 0.00 0.00 0.00 89 1013.0
20260906094541 25 192 0.0 0.0 0.00 0.00 0.00 89 1012.8
20260906094037 25 192 0.0 0.0 0.00 0.00 0.00 89 1012.8
20260906093534 25 192 0.0 0.0 0.00 0.00 0.00 89 1012.8
20260906093033 25 192 0.0 0.0 0.00 0.00 0.00 89 1012.7
20260906092528 25 192 0.0 0.0 0.00 0.00 0.00 88 1012.8
20260906092024 25 192 0.0 0.0 0.00 0.00 0.00 88 1012.6
20260906091519 25 192 0.0 0.0 0.00 0.00 0.00 88 1012.7
20260906091016 25 192 0.0 0.0 0.00 0.00 0.00 88 1012.9
20260906090516 26 192 0.0 0.0 0.00 0.00 0.00 87 1012.8
20260906090011 26 192 0.0 0.0 0.00 0.00 0.00 87 1012.6
20260906085510 26 192 0.0 0.0 0.00 0.00 0.00 87 1012.7
20260906085009 26 192 0.0 0.0 0.00 0.00 0.00 87 1012.5
20260906084504 26 192 0.0 0.0 0.00 0.00 0.00 87 1012.6
20260906084003 26 192 0.0 0.0 0.00 0.00 0.00 87 1012.7
20260906083459 26 192 0.0 0.0 0.00 0.00 0.00 87 1012.7
20260906082958 26 191 0.0 0.0 0.00 0.00 0.00 86 1012.7
20260906082454 26 191 0.0 0.0 0.00 0.00 0.00 86 1012.6
20260906081949 26 192 0.0 0.0 0.00 0.00 0.00 86 1012.8
20260906081444 26 192 0.0 0.0 0.00 0.00 0.00 86 1012.9
20260906080940 26 191 0.0 0.0 0.00 0.00 0.00 86 1012.9
20260906080436 26 191 0.0 0.0 0.00 0.00 0.00 86 1012.9
20260906075931 26 191 0.0 0.0 0.00 0.00 0.00 86 1012.8
20260906075426 26 191 0.0 0.0 0.00 0.00 0.00 85 1012.9
20260906074921 26 191 0.0 0.0 0.00 0.00 0.00 85 1012.9
20260906074420 26 191 0.0 0.0 0.00 0.00 0.00 85 1012.9
20260906073919 26 191 0.0 0.0 0.00 0.00 0.00 85 1013.1
20260906073409 26 191 0.0 0.0 0.00 0.00 0.00 84 1012.9
20260906072906 26 191 0.0 0.0 0.00 0.00 0.00 84 1013.0
20260906072401 26 191 0.0 0.0 0.00 0.00 0.00 84 1013.0
20260906071856 27 191 0.0 0.0 0.00 0.00 0.00 84 1013.0
20260906071352 27 190 0.0 0.0 0.00 0.00 0.00 83 1013.0
20260906070847 27 190 0.0 0.0 0.00 0.00 0.00 83 1012.9
20260906070343 27 184 0.0 0.0 0.00 0.00 0.00 82 1012.8
20260906065839 27 193 0.0 0.0 0.00 0.00 0.00 82 1012.8
20260906065333 27 193 0.0 0.0 0.00 0.00 0.00 82 1012.9
20260906064828 27 187 0.0 0.0 0.00 0.00 0.00 81 1012.9
20260906064325 27 197 0.0 0.0 0.00 0.00 0.00 81 1012.9
20260906063819 27 199 0.0 0.0 0.00 0.00 0.00 81 1012.9
20260906063315 27 190 0.0 0.0 0.00 0.00 0.00 80 1013.1
20260906062810 27 193 0.0 0.0 0.00 0.00 0.00 80 1013.1
20260906062309 27 205 0.0 0.0 0.00 0.00 0.00 80 1013.0
20260906061804 27 202 0.0 0.0 0.00 0.00 0.00 80 1013.2
20260906061301 27 191 0.0 0.0 0.00 0.00 0.00 80 1013.3
20260906060801 27 204 0.0 0.0 0.00 0.00 0.00 79 1013.2
20260906060259 27 200 0.0 0.0 0.00 0.00 0.00 79 1013.4
20260906055754 27 200 0.0 0.0 0.00 0.00 0.00 78 1013.3
20260906055249 28 206 0.0 0.0 0.00 0.00 0.00 78 1013.3
20260906054744 28 185 0.0 0.0 0.00 0.00 0.00 77 1013.2
20260906054240 28 183 0.0 0.0 0.00 0.00 0.00 77 1013.2
20260906053736 28 198 0.0 0.0 0.00 0.00 0.00 77 1013.2
20260906053232 28 220 0.0 0.0 0.00 0.00 0.00 77 1013.2
20260906052727 28 200 0.0 0.0 0.00 0.00 0.00 76 1013.2
20260906052223 28 198 0.0 0.0 0.00 0.00 0.00 76 1013.1
20260906051720 28 206 0.0 0.0 0.00 0.00 0.00 76 1013.3
20260906051219 28 195 0.0 0.0 0.00 0.00 0.00 75 1013.1
20260906050714 28 232 0.0 0.0 0.00 0.00 0.00 75 1013.2
20260906050209 28 191 0.0 0.0 0.00 0.00 0.00 75 1013.2
20260906045708 28 200 0.0 0.0 0.00 0.00 0.00 74 1013.1
20260906045202 28 198 0.0 0.0 0.00 0.00 0.00 74 1013.0
20260906044659 28 205 0.0 0.0 0.00 0.00 0.00 73 1012.9
20260906044154 28 206 0.0 0.0 0.00 0.00 0.00 73 1013.0
20260906043650 28 207 0.0 0.0 0.00 0.00 0.00 73 1012.7
20260906043145 28 191 0.0 0.0 0.00 0.00 0.00 72 1013.1
20260906042640 28 200 0.0 0.0 0.00 0.00 0.00 72 1013.1
20260906042139 28 201 0.0 0.0 0.00 0.00 0.00 71 1013.0
20260906041629 29 211 0.0 0.0 0.00 0.00 0.00 71 1013.0
20260906041124 29 207 0.0 0.0 0.00 0.00 0.00 70 1013.0
20260906040620 29 205 0.0 0.0 0.00 0.00 0.00 71 1013.1
20260906040115 29 193 0.0 0.0 0.00 0.00 0.00 71 1013.2
20260906035610 29 194 0.0 0.0 0.00 0.00 0.00 71 1013.3
20260906035106 29 193 0.0 0.0 0.00 0.00 0.00 71 1013.2
20260906034606 29 200 0.0 0.0 0.00 0.00 0.00 71 1013.0
20260906034101 29 210 0.0 0.0 0.00 0.00 0.00 71 1013.0
20260906033556 29 206 0.0 0.0 0.00 0.00 0.00 71 1013.1
20260906033051 29 193 0.0 0.0 0.00 0.00 0.00 71 1013.3
20260906032548 29 184 0.0 0.0 0.00 0.00 0.00 70 1013.0
20260906032047 30 191 0.0 0.0 0.00 0.00 0.00 70 1012.9
20260906031543 30 204 0.0 0.0 0.00 0.00 0.00 70 1013.0
20260906031038 30 192 0.0 0.0 0.00 0.00 0.00 70 1013.1
20260906030538 30 188 0.0 0.0 0.00 0.00 0.00 69 1013.0
20260906030037 30 201 0.0 0.0 0.00 0.00 0.00 69 1013.1
20260906025532 30 225 0.0 0.0 0.00 0.00 0.00 69 1013.0
20260906025030 30 187 0.0 0.0 0.00 0.00 0.00 68 1013.1
20260906024525 30 188 0.0 0.0 0.00 0.00 0.00 68 1013.0
20260906024019 30 191 0.0 0.0 0.00 0.00 0.00 68 1012.8
20260906023516 30 193 0.0 0.0 0.00 0.00 0.00 67 1012.9
20260906023010 30 201 0.0 0.0 0.00 0.00 0.00 66 1012.9
20260906022506 30 173 0.0 0.0 0.00 0.00 0.00 66 1012.9
20260906022001 30 28 1.6 1.6 0.00 0.00 0.00 65 1012.8
20260906021455 30 185 0.0 0.0 0.00 0.00 0.00 65 1012.7
20260906020950 30 175 0.0 0.0 0.00 0.00 0.00 65 1012.3
20260906020444 30 168 0.0 0.0 0.00 0.00 0.00 64 1012.4
20260906015938 31 204 0.0 0.0 0.00 0.00 0.00 63 1012.3
20260906015432 31 179 0.0 0.0 0.00 0.00 0.00 63 1012.2
20260906014926 31 198 0.0 0.0 0.00 0.00 0.00 63 1012.3
20260906014426 31 240 1.6 1.6 0.00 0.00 0.00 62 1012.2
20260906013922 31 173 0.0 1.6 0.00 0.00 0.00 62 1012.1
20260906013417 31 205 0.0 0.0 0.00 0.00 0.00 61 1012.0
20260906012913 31 196 0.0 0.0 0.00 0.00 0.00 61 1011.9
20260906012408 31 114 0.0 0.0 0.00 0.00 0.00 61 1011.7
20260906011907 31 199 0.0 0.0 0.00 0.00 0.00 60 1011.7
20260906011402 31 198 0.0 0.0 0.00 0.00 0.00 60 1011.7
20260906010858 31 200 0.0 0.0 0.00 0.00 0.00 60 1011.6
20260906010354 31 198 0.0 0.0 0.00 0.00 0.00 59 1011.5
20260906005849 32 195 1.6 3.2 0.00 0.00 0.00 58 1011.5
20260906005348 32 184 0.0 0.0 0.00 0.00 0.00 57 1011.5
20260906004847 32 205 0.0 0.0 0.00 0.00 0.00 57 1011.6
20260906004342 32 187 0.0 0.0 0.00 0.00 0.00 56 1011.7
20260906003837 33 183 1.6 1.6 0.00 0.00 0.00 55 1011.4
20260906003332 33 207 0.0 0.0 0.00 0.00 0.00 53 1011.3
20260906002828 33 203 1.6 1.6 0.00 0.00 0.00 52 1011.4
20260906002327 34 192 4.8 12.9 0.00 0.00 0.00 51 1011.3
20260906001823 34 190 0.0 0.0 0.00 0.00 0.00 51 1011.4
20260906001318 34 193 0.0 0.0 0.00 0.00 0.00 51 1011.2
20260906000813 35 169 1.6 1.6 0.00 0.00 0.00 51 1011.1
20260906000308 35 169 3.2 3.2 0.00 0.00 0.00 50 1011.0
20260905235803 35 190 0.0 1.6 0.00 0.00 0.00 48 1011.0
20260905235306 35 192 0.0 0.0 0.00 0.00 0.00 47 1011.1
20260905234758 35 196 0.0 0.0 0.00 0.00 0.00 46 1010.9
20260905234253 35 191 0.0 0.0 0.00 0.00 0.00 45 1010.8
20260905233749 36 198 0.0 0.0 0.00 0.00 0.00 45 1010.8
20260905233248 36 176 0.0 0.0 0.00 0.00 0.00 45 1010.7
20260905232748 36 180 0.0 1.6 0.00 0.00 0.00 45 1010.7
20260905232244 36 204 0.0 0.0 0.00 0.00 0.00 44 1010.6
20260905231739 36 190 0.0 0.0 0.00 0.00 0.00 44 1010.7
20260905231234 36 207 0.0 0.0 0.00 0.00 0.00 44 1010.9
20260905230731 36 189 0.0 0.0 0.00 0.00 0.00 43 1010.8
20260905230228 36 180 0.0 0.0 0.00 0.00 0.00 45 1010.8
20260905225727 36 191 0.0 0.0 0.00 0.00 0.00 44 1010.7
20260905225223 36 192 0.0 0.0 0.00 0.00 0.00 44 1010.7
20260905224722 36 197 0.0 0.0 0.00 0.00 0.00 45 1010.6
20260905224217 36 193 0.0 0.0 0.00 0.00 0.00 46 1010.7